CZ-6A DEB, 54415

Orbit data source: Space-Track

CZ-6A DEB, 54415 is space debris in SSO originally from a launch on Fri, 11 Nov 2022 UTC launched from the Taiyaun Space Center, China (TSC). Debris objects in space refer to the collection of defunct objects orbiting the Earth. Examples of debris include non-operational satellites, rocket bodies, and fragments generated from explosions, collisions, or faulty payload assembly.

Loading next visibility...
Identifier
54415, 2022-151EP
Orbit
SSO
Country
Flag of CNCN / PRC
Related business
Manufacturer
SAST
Mission
Spacecraft
Bus & Motor
Unknown
Mass
Unknown
Launch date (UTC)
2022-11-11 (4 years ago)
Launch vehicle
Unknown
Launch site
Taiyaun Space Center, China (TSC)
Object type
Payload
Rocket body
Debris
Shape & HBR
Unknown shape, 0.4 m
Radar Cross Section
Medium (>0.1 m² and <1 m²)

Expand to show TLE details & history
Last TLE update: 1 day ago

TLE from 1 day ago
0 CZ-6A DEB
1 54415U 22151EP  26235.19578220  .00001088  00000-0  88480-3 0  9990
2 54415  99.0068 157.2281 0353531  25.3815 336.4238 13.66445075187986
Epoch: 2026-08-23T04:41Z
TLE epoch observation values (Epoch: 2026-08-23T04:41:55.582Z)
Latitude
-0.00001°
Longitude
115.25119°
Altitude
777.234 km
Speed
7.585 km/s
True Right ascension
10h 28m 54s
True Declination
0° 00' 00"
Sunlit
Object was in daylight at epoch
Visualization orbit readout
Latitude
Unknown
Longitude
Unknown
Altitude
Unknown
Speed
Unknown
Apparent Right ascension
Unknown
Apparent Declination
Unknown
Sunlit
N/A
Visualization observer readout
Local Sidereal Time
02:52:19
Azimuth
Unknown
Elevation
Unknown
Doppler factor
Unknown
Orbital elements
Apogee altitude
1,270.78 km
Perigee altitude
748.421 km
Semi-major axis
7,387.738 km
Eccentricity
0.03535
Inclination
99.0068°
RAAN
157.2281°
Arg. of periapsis
25.3815°
True anomaly
334.73543°
Mean anomaly
336.4238°
Eccentric anomaly
335.58659°
Mean motion
3.41803 °/min
Orbital period
105.32 mins
BSTAR
0.0008848
Loading maneuver chart data...
Computing Atmospheric mass density...

Documentation

Showing up to 5 results
|